| time (UTC) | temp C | wind direction | speed KPH | gust KPH | rain 1hr cm | rain 24hr cm | rain mn cm | humidity % | barometer mb |
| 20260507185508 | 12 | 284 | 8.0 | 19.3 | 0.00 | 0.00 | 0.00 | 47 | 1010.1 |
| 20260507185007 | 12 | 255 | 8.0 | 20.9 | 0.00 | 0.00 | 0.00 | 46 | 1010.3 |
| 20260507184510 | 12 | 224 | 11.3 | 22.5 | 0.00 | 0.00 | 0.00 | 45 | 1010.3 |
| 20260507184005 | 12 | 277 | 11.3 | 22.5 | 0.00 | 0.00 | 0.00 | 44 | 1010.4 |
| 20260507183505 | 12 | 267 | 6.4 | 17.7 | 0.00 | 0.00 | 0.00 | 48 | 1010.4 |
| 20260507183013 | 12 | 310 | 9.7 | 19.3 | 0.00 | 0.00 | 0.00 | 44 | 1010.3 |
| 20260507182510 | 13 | 293 | 6.4 | 19.3 | 0.00 | 0.00 | 0.00 | 43 | 1010.4 |
| 20260507182010 | 13 | 274 | 8.0 | 17.7 | 0.00 | 0.00 | 0.00 | 45 | 1010.3 |
| 20260507181515 | 12 | 325 | 8.0 | 25.7 | 0.00 | 0.00 | 0.00 | 43 | 1010.2 |
| 20260507181004 | 12 | 250 | 4.8 | 25.7 | 0.00 | 0.00 | 0.00 | 46 | 1010.4 |
| 20260507180504 | 12 | 302 | 3.2 | 19.3 | 0.00 | 0.00 | 0.00 | 44 | 1010.3 |
| 20260507180004 | 12 | 276 | 8.0 | 25.7 | 0.00 | 0.00 | 0.00 | 43 | 1010.4 |
| 20260507175503 | 12 | 259 | 11.3 | 30.6 | 0.00 | 0.00 | 0.00 | 43 | 1010.3 |
| 20260507175006 | 12 | 243 | 17.7 | 30.6 | 0.00 | 0.00 | 0.00 | 42 | 1010.3 |
| 20260507174514 | 12 | 267 | 14.5 | 25.7 | 0.00 | 0.00 | 0.00 | 43 | 1010.4 |
| 20260507174004 | 12 | 250 | 11.3 | 22.5 | 0.00 | 0.00 | 0.00 | 44 | 1010.6 |
| 20260507173504 | 12 | 250 | 9.7 | 20.9 | 0.00 | 0.00 | 0.00 | 47 | 1010.7 |
| 20260507173021 | 12 | 286 | 9.7 | 17.7 | 0.00 | 0.00 | 0.00 | 44 | 1010.6 |
| 20260507172506 | 12 | 296 | 8.0 | 16.1 | 0.00 | 0.00 | 0.00 | 47 | 1010.8 |
| 20260507172006 | 11 | 293 | 6.4 | 24.1 | 0.00 | 0.00 | 0.00 | 49 | 1010.8 |
| 20260507171504 | 11 | 265 | 11.3 | 27.4 | 0.00 | 0.00 | 0.00 | 45 | 1011.0 |
| 20260507171005 | 11 | 294 | 8.0 | 27.4 | 0.00 | 0.00 | 0.00 | 48 | 1011.1 |
| 20260507170502 | 11 | 279 | 9.7 | 25.7 | 0.00 | 0.00 | 0.00 | 47 | 1011.1 |
| 20260507170013 | 12 | 293 | 6.4 | 24.1 | 0.00 | 0.00 | 0.00 | 46 | 1011.1 |
| 20260507165503 | 11 | 278 | 12.9 | 24.1 | 0.00 | 0.00 | 0.00 | 46 | 1011.1 |
| 20260507165004 | 11 | 245 | 6.4 | 19.3 | 0.00 | 0.00 | 0.00 | 49 | 1011.2 |
| 20260507164503 | 11 | 247 | 6.4 | 20.9 | 0.00 | 0.00 | 0.00 | 49 | 1011.3 |
| 20260507164004 | 11 | 281 | 12.9 | 20.9 | 0.00 | 0.00 | 0.00 | 49 | 1011.3 |
| 20260507163504 | 11 | 286 | 4.8 | 16.1 | 0.00 | 0.00 | 0.00 | 52 | 1011.3 |
| 20260507163010 | 11 | 282 | 4.8 | 16.1 | 0.00 | 0.00 | 0.00 | 51 | 1011.4 |
| 20260507162506 | 11 | 335 | 6.4 | 17.7 | 0.00 | 0.00 | 0.00 | 51 | 1011.4 |
| 20260507162007 | 11 | 273 | 4.8 | 20.9 | 0.00 | 0.00 | 0.00 | 50 | 1011.4 |
| 20260507161513 | 11 | 288 | 9.7 | 20.9 | 0.00 | 0.00 | 0.00 | 49 | 1011.4 |
| 20260507161004 | 11 | 285 | 9.7 | 17.7 | 0.00 | 0.00 | 0.00 | 49 | 1011.6 |
| 20260507160505 | 10 | 286 | 8.0 | 19.3 | 0.00 | 0.00 | 0.00 | 49 | 1011.6 |
| 20260507160003 | 11 | 263 | 9.7 | 27.4 | 0.00 | 0.00 | 0.00 | 47 | 1011.7 |
| 20260507155503 | 11 | 222 | 14.5 | 27.4 | 0.00 | 0.00 | 0.00 | 46 | 1011.7 |
| 20260507155002 | 11 | 288 | 6.4 | 16.1 | 0.00 | 0.00 | 0.00 | 48 | 1011.8 |
| 20260507154507 | 11 | 283 | 9.7 | 16.1 | 0.00 | 0.00 | 0.00 | 46 | 1011.8 |
| 20260507154004 | 11 | 303 | 6.4 | 12.9 | 0.00 | 0.00 | 0.00 | 48 | 1011.9 |
| 20260507153504 | 11 | 314 | 4.8 | 16.1 | 0.00 | 0.00 | 0.00 | 50 | 1011.8 |
| 20260507153008 | 10 | 267 | 3.2 | 22.5 | 0.00 | 0.00 | 0.00 | 53 | 1011.9 |
| 20260507152504 | 10 | 328 | 8.0 | 22.5 | 0.00 | 0.00 | 0.00 | 50 | 1012.1 |
| 20260507152004 | 10 | 269 | 8.0 | 17.7 | 0.00 | 0.00 | 0.00 | 51 | 1012.1 |
| 20260507151517 | 10 | 320 | 8.0 | 19.3 | 0.00 | 0.00 | 0.00 | 52 | 1012.2 |
| 20260507151008 | 10 | 281 | 8.0 | 19.3 | 0.00 | 0.00 | 0.00 | 53 | 1012.1 |
| 20260507150507 | 10 | 297 | 8.0 | 25.7 | 0.00 | 0.00 | 0.00 | 54 | 1012.4 |
| 20260507150015 | 10 | 251 | 14.5 | 25.7 | 0.00 | 0.00 | 0.00 | 53 | 1012.4 |
| 20260507145506 | 10 | 200 | 8.0 | 17.7 | 0.00 | 0.00 | 0.00 | 55 | 1012.4 |
| 20260507145006 | 10 | 266 | 8.0 | 25.7 | 0.00 | 0.00 | 0.00 | 55 | 1012.3 |
| 20260507144518 | 9 | 261 | 8.0 | 25.7 | 0.00 | 0.00 | 0.00 | 55 | 1012.5 |
| 20260507144003 | 9 | 259 | 9.7 | 20.9 | 0.00 | 0.00 | 0.00 | 56 | 1012.6 |
| 20260507143503 | 9 | 261 | 11.3 | 20.9 | 0.00 | 0.03 | 0.00 | 52 | 1012.6 |
| 20260507143005 | 9 | 323 | 4.8 | 14.5 | 0.00 | 0.03 | 0.00 | 55 | 1012.6 |
| 20260507142504 | 9 | 266 | 3.2 | 11.3 | 0.00 | 0.03 | 0.00 | 57 | 1012.8 |
| 20260507142004 | 8 | 246 | 4.8 | 11.3 | 0.00 | 0.03 | 0.00 | 58 | 1012.7 |
| 20260507141507 | 8 | 292 | 3.2 | 16.1 | 0.00 | 0.03 | 0.00 | 59 | 1012.9 |
| 20260507141004 | 8 | 283 | 8.0 | 16.1 | 0.00 | 0.03 | 0.00 | 56 | 1012.9 |
| 20260507140506 | 8 | 229 | 6.4 | 16.1 | 0.00 | 0.03 | 0.00 | 58 | 1012.9 |
| 20260507140011 | 8 | 272 | 6.4 | 16.1 | 0.00 | 0.05 | 0.00 | 58 | 1013.0 |
| 20260507135506 | 8 | 204 | 6.4 | 14.5 | 0.00 | 0.05 | 0.00 | 56 | 1013.0 |
| 20260507135006 | 8 | 262 | 3.2 | 12.9 | 0.00 | 0.05 | 0.00 | 59 | 1013.1 |
| 20260507134514 | 7 | 272 | 4.8 | 19.3 | 0.00 | 0.05 | 0.00 | 58 | 1013.1 |
| 20260507134007 | 7 | 271 | 8.0 | 19.3 | 0.00 | 0.05 | 0.00 | 56 | 1012.9 |
| 20260507133509 | 7 | 255 | 6.4 | 14.5 | 0.00 | 0.05 | 0.00 | 57 | 1013.2 |
| 20260507133020 | 8 | 248 | 4.8 | 11.3 | 0.00 | 0.05 | 0.00 | 57 | 1013.1 |
| 20260507132503 | 8 | 188 | 1.6 | 11.3 | 0.00 | 0.05 | 0.00 | 59 | 1013.2 |
| 20260507132004 | 8 | 252 | 1.6 | 8.0 | 0.00 | 0.05 | 0.00 | 60 | 1013.1 |
| 20260507131507 | 8 | 241 | 1.6 | 4.8 | 0.00 | 0.05 | 0.00 | 63 | 1013.0 |
| 20260507131004 | 7 | 166 | 1.6 | 6.4 | 0.00 | 0.05 | 0.00 | 63 | 1013.0 |
| 20260507130505 | 7 | 167 | 1.6 | 6.4 | 0.00 | 0.05 | 0.00 | 63 | 1013.0 |
| 20260507130008 | 7 | 151 | 4.8 | 6.4 | 0.00 | 0.05 | 0.00 | 60 | 1013.1 |
| 20260507125504 | 7 | 169 | 3.2 | 6.4 | 0.00 | 0.05 | 0.00 | 64 | 1013.2 |
| 20260507125005 | 7 | 248 | 1.6 | 4.8 | 0.00 | 0.05 | 0.00 | 61 | 1013.2 |
| 20260507124516 | 7 | 202 | 0.0 | 4.8 | 0.00 | 0.05 | 0.00 | 60 | 1013.3 |
| 20260507124007 | 7 | 218 | 1.6 | 3.2 | 0.00 | 0.08 | 0.00 | 61 | 1013.2 |
| 20260507123509 | 7 | 198 | 1.6 | 3.2 | 0.00 | 0.08 | 0.00 | 65 | 1013.3 |
| 20260507123022 | 7 | 141 | 0.0 | 1.6 | 0.00 | 0.08 | 0.00 | 70 | 1013.2 |
| 20260507122507 | 7 | 191 | 0.0 | 1.6 | 0.00 | 0.08 | 0.00 | 70 | 1013.1 |
| 20260507122013 | 7 | 150 | 0.0 | 1.6 | 0.00 | 0.08 | 0.00 | 71 | 1013.1 |
| 20260507121523 | 6 | 191 | 0.0 | 3.2 | 0.00 | 0.08 | 0.00 | 72 | 1013.2 |
| 20260507121003 | 6 | 191 | 0.0 | 3.2 | 0.00 | 0.08 | 0.00 | 72 | 1013.2 |
| 20260507120502 | 5 | 250 | 1.6 | 4.8 | 0.00 | 0.08 | 0.00 | 68 | 1013.1 |
| 20260507120008 | 5 | 245 | 3.2 | 4.8 | 0.00 | 0.08 | 0.00 | 66 | 1013.2 |
| 20260507115503 | 6 | 230 | 1.6 | 3.2 | 0.00 | 0.08 | 0.00 | 66 | 1013.2 |
| 20260507115005 | 6 | 238 | 0.0 | 1.6 | 0.00 | 0.08 | 0.00 | 67 | 1013.2 |
| 20260507114511 | 6 | 260 | 0.0 | 1.6 | 0.00 | 0.10 | 0.00 | 68 | 1013.0 |
| 20260507114007 | 5 | 252 | 0.0 | 3.2 | 0.00 | 0.10 | 0.00 | 69 | 1013.1 |
| 20260507113505 | 5 | 255 | 1.6 | 3.2 | 0.00 | 0.10 | 0.00 | 65 | 1013.0 |
| 20260507113019 | 5 | 236 | 1.6 | 4.8 | 0.00 | 0.13 | 0.00 | 66 | 1013.0 |
| 20260507112508 | 5 | 252 | 1.6 | 4.8 | 0.00 | 0.15 | 0.00 | 66 | 1013.0 |
| 20260507112008 | 5 | 256 | 1.6 | 4.8 | 0.00 | 0.18 | 0.00 | 66 | 1012.9 |
| 20260507111522 | 5 | 233 | 3.2 | 4.8 | 0.00 | 0.23 | 0.00 | 66 | 1012.8 |
| 20260507111007 | 5 | 230 | 3.2 | 4.8 | 0.00 | 0.25 | 0.00 | 66 | 1012.7 |
| 20260507110509 | 5 | 270 | 1.6 | 4.8 | 0.00 | 0.28 | 0.00 | 66 | 1012.7 |
| 20260507110025 | 4 | 251 | 3.2 | 4.8 | 0.00 | 0.30 | 0.00 | 66 | 1012.6 |
| 20260507105510 | 5 | 224 | 3.2 | 4.8 | 0.00 | 0.36 | 0.00 | 66 | 1012.5 |
| 20260507105003 | 4 | 241 | 4.8 | 4.8 | 0.00 | 0.41 | 0.00 | 66 | 1012.4 |
| 20260507104506 | 4 | 251 | 3.2 | 3.2 | 0.00 | 0.43 | 0.00 | 65 | 1012.5 |
| 20260507104006 | 4 | 248 | 3.2 | 4.8 | 0.00 | 0.48 | 0.00 | 67 | 1012.5 |
| 20260507103505 | 4 | 245 | 3.2 | 4.8 | 0.00 | 0.51 | 0.00 | 68 | 1012.5 |
| 20260507103011 | 4 | 233 | 3.2 | 4.8 | 0.00 | 0.56 | 0.00 | 68 | 1012.6 |
| 20260507102506 | 3 | 221 | 3.2 | 4.8 | 0.00 | 0.61 | 0.00 | 68 | 1012.5 |
| 20260507102007 | 4 | 238 | 3.2 | 4.8 | 0.00 | 0.64 | 0.00 | 69 | 1012.5 |
| 20260507101518 | 4 | 233 | 3.2 | 4.8 | 0.00 | 0.66 | 0.00 | 69 | 1012.5 |
| 20260507101005 | 3 | 243 | 3.2 | 4.8 | 0.00 | 0.69 | 0.00 | 70 | 1012.6 |
| 20260507100507 | 3 | 251 | 1.6 | 3.2 | 0.00 | 0.74 | 0.00 | 70 | 1012.6 |
| 20260507100021 | 4 | 250 | 1.6 | 4.8 | 0.00 | 0.76 | 0.00 | 69 | 1012.5 |
| 20260507095512 | 4 | 251 | 1.6 | 4.8 | 0.00 | 0.79 | 0.00 | 69 | 1012.6 |
| 20260507095007 | 4 | 254 | 3.2 | 4.8 | 0.00 | 0.81 | 0.00 | 70 | 1012.6 |
| 20260507094523 | 4 | 247 | 3.2 | 3.2 | 0.00 | 0.84 | 0.00 | 70 | 1012.5 |
| 20260507094007 | 4 | 247 | 1.6 | 1.6 | 0.00 | 0.84 | 0.00 | 70 | 1012.5 |
| 20260507093506 | 4 | 247 | 0.0 | 0.0 | 0.00 | 0.89 | 0.00 | 70 | 1012.5 |
| 20260507093014 | 4 | 245 | 0.0 | 0.0 | 0.00 | 0.91 | 0.00 | 69 | 1012.4 |
| 20260507092504 | 4 | 240 | 0.0 | 0.0 | 0.00 | 0.94 | 0.00 | 69 | 1012.5 |
| 20260507092006 | 4 | 256 | 0.0 | 0.0 | 0.00 | 0.99 | 0.00 | 70 | 1012.6 |
| 20260507091512 | 3 | 257 | 0.0 | 0.0 | 0.00 | 0.99 | 0.00 | 71 | 1012.5 |
| 20260507091006 | 3 | 285 | 0.0 | 0.0 | 0.00 | 1.02 | 0.00 | 70 | 1012.6 |
| 20260507090507 | 4 | 285 | 0.0 | 0.0 | 0.00 | 1.04 | 0.00 | 69 | 1012.5 |
| 20260507090018 | 4 | 285 | 0.0 | 0.0 | 0.00 | 1.04 | 0.00 | 69 | 1012.5 |
| 20260507085508 | 4 | 287 | 0.0 | 0.0 | 0.00 | 1.04 | 0.00 | 68 | 1012.4 |
| 20260507085012 | 4 | 287 | 0.0 | 1.6 | 0.00 | 1.04 | 0.00 | 68 | 1012.4 |
| 20260507084514 | 4 | 287 | 0.0 | 1.6 | 0.00 | 1.04 | 0.00 | 68 | 1012.4 |
| 20260507084003 | 4 | 306 | 0.0 | 3.2 | 0.00 | 1.04 | 0.00 | 68 | 1012.3 |
| 20260507083503 | 4 | 306 | 0.0 | 3.2 | 0.00 | 1.04 | 0.00 | 68 | 1012.3 |
| 20260507083005 | 4 | 307 | 1.6 | 3.2 | 0.00 | 1.04 | 0.00 | 68 | 1012.4 |
| 20260507082504 | 4 | 309 | 1.6 | 3.2 | 0.00 | 1.04 | 0.00 | 69 | 1012.4 |
| 20260507082003 | 4 | 309 | 0.0 | 3.2 | 0.00 | 1.04 | 0.00 | 68 | 1012.5 |
| 20260507081510 | 4 | 309 | 0.0 | 3.2 | 0.00 | 1.04 | 0.00 | 68 | 1012.5 |
| 20260507081003 | 4 | 300 | 1.6 | 1.6 | 0.00 | 1.07 | 0.00 | 67 | 1012.5 |
| 20260507080504 | 4 | 301 | 0.0 | 3.2 | 0.00 | 1.07 | 0.00 | 67 | 1012.5 |
| 20260507080013 | 4 | 301 | 0.0 | 3.2 | 0.00 | 1.07 | 0.00 | 67 | 1012.5 |
| 20260507075506 | 4 | 299 | 1.6 | 3.2 | 0.00 | 1.07 | 0.00 | 67 | 1012.6 |
| 20260507075007 | 4 | 288 | 1.6 | 3.2 | 0.00 | 1.07 | 0.00 | 68 | 1012.6 |
| 20260507074518 | 5 | 289 | 0.0 | 3.2 | 0.00 | 1.07 | 0.00 | 67 | 1012.7 |
| 20260507074008 | 5 | 280 | 1.6 | 3.2 | 0.00 | 1.07 | 0.00 | 67 | 1012.7 |
| 20260507073510 | 5 | 283 | 1.6 | 3.2 | 0.00 | 1.09 | 0.00 | 67 | 1012.7 |
| 20260507073022 | 5 | 276 | 1.6 | 1.6 | 0.00 | 1.09 | 0.00 | 67 | 1012.7 |
| 20260507072503 | 5 | 293 | 0.0 | 3.2 | 0.00 | 1.09 | 0.00 | 67 | 1012.7 |
| 20260507072003 | 5 | 285 | 1.6 | 4.8 | 0.00 | 1.12 | 0.00 | 66 | 1012.7 |
| 20260507071506 | 5 | 290 | 0.0 | 4.8 | 0.00 | 1.12 | 0.00 | 66 | 1012.7 |
| 20260507071004 | 5 | 278 | 1.6 | 4.8 | 0.00 | 1.14 | 0.00 | 66 | 1012.7 |
| 20260507070504 | 5 | 289 | 1.6 | 4.8 | 0.00 | 1.14 | 0.00 | 66 | 1012.8 |
| 20260507070012 | 5 | 301 | 1.6 | 3.2 | 0.00 | 1.17 | 0.00 | 66 | 1012.7 |
| 20260507065506 | 5 | 283 | 1.6 | 3.2 | 0.00 | 1.19 | 0.00 | 65 | 1012.8 |
| 20260507065004 | 5 | 291 | 0.0 | 3.2 | 0.00 | 1.19 | 0.00 | 64 | 1012.8 |
| 20260507064516 | 5 | 282 | 0.0 | 3.2 | 0.00 | 1.22 | 0.00 | 64 | 1012.7 |
| 20260507064007 | 5 | 285 | 1.6 | 3.2 | 0.00 | 1.22 | 0.00 | 63 | 1012.7 |
| 20260507063508 | 5 | 292 | 0.0 | 3.2 | 0.00 | 1.24 | 0.00 | 63 | 1012.6 |
| 20260507063019 | 5 | 293 | 0.0 | 1.6 | 0.00 | 1.24 | 0.00 | 63 | 1012.7 |
| 20260507062506 | 5 | 293 | 0.0 | 3.2 | 0.00 | 1.27 | 0.00 | 62 | 1012.6 |
| 20260507062011 | 5 | 287 | 1.6 | 4.8 | 0.00 | 1.27 | 0.00 | 62 | 1012.6 |
| 20260507061522 | 5 | 291 | 1.6 | 4.8 | 0.00 | 1.27 | 0.00 | 61 | 1012.7 |
| 20260507061004 | 5 | 305 | 3.2 | 4.8 | 0.00 | 1.30 | 0.00 | 62 | 1012.8 |
| 20260507060503 | 5 | 308 | 1.6 | 8.0 | 0.00 | 1.30 | 0.00 | 62 | 1012.9 |
| 20260507060012 | 6 | 314 | 3.2 | 8.0 | 0.00 | 1.32 | 0.00 | 61 | 1012.9 |
| 20260507055504 | 6 | 277 | 4.8 | 8.0 | 0.00 | 1.32 | 0.00 | 61 | 1013.0 |
| 20260507055011 | 6 | 289 | 1.6 | 9.7 | 0.00 | 1.32 | 0.00 | 62 | 1013.0 |
| 20260507054512 | 6 | 271 | 3.2 | 9.7 | 0.00 | 1.32 | 0.00 | 62 | 1013.1 |
| 20260507054010 | 6 | 311 | 4.8 | 8.0 | 0.00 | 1.32 | 0.00 | 62 | 1013.2 |
| 20260507053506 | 6 | 293 | 4.8 | 6.4 | 0.00 | 1.32 | 0.00 | 61 | 1013.2 |
| 20260507053018 | 6 | 288 | 3.2 | 6.4 | 0.00 | 1.32 | 0.00 | 61 | 1013.2 |
| 20260507052507 | 6 | 290 | 1.6 | 12.9 | 0.00 | 1.32 | 0.00 | 61 | 1013.2 |
| 20260507052007 | 6 | 279 | 4.8 | 12.9 | 0.00 | 1.32 | 0.00 | 61 | 1013.2 |
| 20260507051520 | 6 | 282 | 3.2 | 8.0 | 0.00 | 1.32 | 0.00 | 61 | 1013.3 |
| 20260507051007 | 6 | 278 | 3.2 | 9.7 | 0.00 | 1.32 | 0.00 | 61 | 1013.2 |
| 20260507050506 | 6 | 297 | 4.8 | 9.7 | 0.00 | 1.32 | 0.00 | 60 | 1013.2 |
| 20260507050039 | 6 | 290 | 1.6 | 8.0 | 0.00 | 1.32 | 0.00 | 60 | 1013.1 |
| 20260507045507 | 6 | 290 | 3.2 | 8.0 | 0.00 | 1.32 | 0.00 | 60 | 1013.1 |
| 20260507045004 | 6 | 305 | 3.2 | 8.0 | 0.00 | 1.32 | 0.00 | 60 | 1013.2 |
| 20260507044509 | 6 | 281 | 3.2 | 6.4 | 0.00 | 1.32 | 0.00 | 60 | 1013.2 |
| 20260507044005 | 6 | 302 | 1.6 | 6.4 | 0.00 | 1.32 | 0.00 | 60 | 1013.2 |
| 20260507043506 | 6 | 307 | 3.2 | 9.7 | 0.00 | 1.32 | 0.00 | 60 | 1013.2 |
| 20260507043011 | 6 | 287 | 3.2 | 9.7 | 0.00 | 1.32 | 0.00 | 59 | 1013.3 |
| 20260507042507 | 6 | 290 | 3.2 | 8.0 | 0.00 | 1.32 | 0.00 | 60 | 1013.2 |
| 20260507042006 | 6 | 290 | 3.2 | 8.0 | 0.00 | 1.32 | 0.00 | 60 | 1013.2 |
| 20260507041516 | 6 | 304 | 3.2 | 8.0 | 0.00 | 1.32 | 0.00 | 59 | 1013.1 |
| 20260507041007 | 6 | 313 | 3.2 | 8.0 | 0.00 | 1.32 | 0.00 | 59 | 1013.2 |
| 20260507040510 | 6 | 269 | 3.2 | 8.0 | 0.00 | 1.32 | 0.00 | 59 | 1013.3 |
| 20260507040022 | 6 | 284 | 3.2 | 8.0 | 0.00 | 1.32 | 0.00 | 59 | 1013.3 |
| 20260507035508 | 6 | 297 | 1.6 | 4.8 | 0.00 | 1.32 | 1.32 | 59 | 1013.2 |
| 20260507035008 | 7 | 288 | 1.6 | 6.4 | 0.00 | 1.32 | 1.32 | 59 | 1013.0 |
| 20260507034527 | 7 | 309 | 3.2 | 8.0 | 0.00 | 1.32 | 1.32 | 58 | 1013.1 |
| 20260507034008 | 7 | 288 | 3.2 | 8.0 | 0.00 | 1.32 | 1.32 | 58 | 1013.0 |
| 20260507033504 | 7 | 290 | 3.2 | 6.4 | 0.00 | 1.32 | 1.32 | 58 | 1013.0 |
| 20260507033010 | 7 | 309 | 3.2 | 9.7 | 0.00 | 1.32 | 1.32 | 58 | 1012.9 |
| 20260507032508 | 7 | 288 | 3.2 | 9.7 | 0.00 | 1.32 | 1.32 | 58 | 1013.0 |
| 20260507032007 | 7 | 296 | 1.6 | 4.8 | 0.00 | 1.32 | 1.32 | 58 | 1013.1 |
| 20260507031516 | 7 | 274 | 1.6 | 4.8 | 0.00 | 1.32 | 1.32 | 57 | 1012.9 |
| 20260507031009 | 7 | 312 | 1.6 | 8.0 | 0.00 | 1.32 | 1.32 | 58 | 1012.7 |
| 20260507030509 | 7 | 326 | 1.6 | 8.0 | 0.00 | 1.32 | 1.32 | 57 | 1012.7 |
| 20260507030017 | 7 | 299 | 1.6 | 6.4 | 0.00 | 1.32 | 1.32 | 57 | 1012.7 |
| 20260507025509 | 7 | 304 | 1.6 | 8.0 | 0.00 | 1.32 | 1.32 | 58 | 1012.8 |
| 20260507025008 | 7 | 291 | 0.0 | 8.0 | 0.00 | 1.32 | 1.32 | 58 | 1012.8 |
| 20260507024522 | 7 | 251 | 0.0 | 4.8 | 0.00 | 1.32 | 1.32 | 58 | 1012.8 |
| 20260507024012 | 7 | 285 | 0.0 | 4.8 | 0.00 | 1.32 | 1.32 | 58 | 1012.7 |
| 20260507023510 | 7 | 274 | 3.2 | 6.4 | 0.00 | 1.32 | 1.32 | 56 | 1012.8 |
| 20260507023025 | 7 | 304 | 1.6 | 6.4 | 0.00 | 1.32 | 1.32 | 57 | 1012.7 |
| 20260507022511 | 7 | 317 | 1.6 | 6.4 | 0.00 | 1.32 | 1.32 | 58 | 1012.4 |
| 20260507022007 | 7 | 302 | 3.2 | 6.4 | 0.00 | 1.32 | 1.32 | 57 | 1012.3 |
| 20260507021510 | 7 | 314 | 1.6 | 4.8 | 0.00 | 1.32 | 1.32 | 58 | 1012.2 |
| 20260507021007 | 7 | 307 | 3.2 | 8.0 | 0.00 | 1.32 | 1.32 | 57 | 1012.4 |
| 20260507020508 | 7 | 318 | 3.2 | 11.3 | 0.00 | 1.32 | 1.32 | 57 | 1012.3 |
| 20260507020016 | 7 | 334 | 4.8 | 11.3 | 0.00 | 1.32 | 1.32 | 57 | 1012.4 |
| 20260507015506 | 7 | 316 | 3.2 | 9.7 | 0.00 | 1.32 | 1.32 | 59 | 1012.5 |
| 20260507015010 | 7 | 319 | 3.2 | 8.0 | 0.00 | 1.32 | 1.32 | 62 | 1012.5 |
| 20260507014522 | 7 | 274 | 3.2 | 6.4 | 0.00 | 1.32 | 1.32 | 61 | 1012.4 |
| 20260507014009 | 7 | 344 | 3.2 | 6.4 | 0.00 | 1.32 | 1.32 | 62 | 1012.4 |
| 20260507013507 | 7 | 313 | 3.2 | 16.1 | 0.00 | 1.32 | 1.32 | 61 | 1012.4 |
| 20260507013023 | 8 | 326 | 6.4 | 16.1 | 0.00 | 1.32 | 1.32 | 60 | 1012.6 |
| 20260507012506 | 8 | 10 | 4.8 | 19.3 | 0.00 | 1.32 | 1.32 | 60 | 1012.7 |
| 20260507012012 | 8 | 279 | 6.4 | 19.3 | 0.00 | 1.32 | 1.32 | 60 | 1012.9 |
| 20260507011525 | 8 | 310 | 3.2 | 11.3 | 0.00 | 1.32 | 1.32 | 60 | 1012.9 |
| 20260507011004 | 8 | 316 | 3.2 | 12.9 | 0.00 | 1.32 | 1.32 | 60 | 1013.0 |
| 20260507010506 | 8 | 303 | 4.8 | 12.9 | 0.00 | 1.32 | 1.32 | 60 | 1013.2 |
| 20260507010021 | 8 | 303 | 3.2 | 9.7 | 0.00 | 1.32 | 1.32 | 60 | 1012.8 |
| 20260507005504 | 8 | 316 | 4.8 | 11.3 | 0.00 | 1.32 | 1.32 | 59 | 1012.9 |
| 20260507005006 | 8 | 290 | 4.8 | 11.3 | 0.00 | 1.32 | 1.32 | 59 | 1012.9 |
| 20260507004504 | 8 | 292 | 6.4 | 11.3 | 0.00 | 1.32 | 1.32 | 58 | 1012.7 |
| 20260507004003 | 8 | 295 | 4.8 | 14.5 | 0.00 | 1.32 | 1.32 | 59 | 1012.6 |
| 20260507003503 | 8 | 296 | 4.8 | 17.7 | 0.00 | 1.32 | 1.32 | 59 | 1012.4 |
| 20260507003004 | 8 | 307 | 6.4 | 17.7 | 0.00 | 1.32 | 1.32 | 59 | 1012.5 |
| 20260507002532 | 8 | 283 | 6.4 | 19.3 | 0.00 | 1.32 | 1.32 | 60 | 1012.7 |
| 20260507002003 | 8 | 306 | 6.4 | 19.3 | 0.00 | 1.32 | 1.32 | 61 | 1012.5 |
| 20260507001507 | 8 | 295 | 6.4 | 19.3 | 0.00 | 1.32 | 1.32 | 62 | 1012.5 |
| 20260507001003 | 8 | 297 | 8.0 | 16.1 | 0.00 | 1.32 | 1.32 | 62 | 1012.5 |
| 20260507000503 | 8 | 266 | 8.0 | 16.1 | 0.00 | 1.32 | 1.32 | 63 | 1012.1 |
| 20260507000009 | 8 | 286 | 6.4 | 19.3 | 0.00 | 1.32 | 1.32 | 66 | 1012.2 |
| 20260506235505 | 8 | 323 | 8.0 | 19.3 | 0.00 | 1.32 | 1.32 | 68 | 1012.0 |
| 20260506235004 | 9 | 282 | 3.2 | 9.7 | 0.00 | 1.32 | 1.32 | 69 | 1012.1 |
| 20260506234516 | 9 | 296 | 3.2 | 12.9 | 0.00 | 1.32 | 1.32 | 69 | 1011.9 |
| 20260506234004 | 9 | 300 | 4.8 | 12.9 | 0.00 | 1.32 | 1.32 | 69 | 1011.9 |
| 20260506233509 | 9 | 303 | 3.2 | 9.7 | 0.00 | 1.32 | 1.32 | 69 | 1011.8 |
| 20260506233018 | 9 | 307 | 3.2 | 9.7 | 0.00 | 1.32 | 1.32 | 70 | 1011.8 |
| 20260506232504 | 9 | 280 | 4.8 | 9.7 | 0.00 | 1.32 | 1.32 | 70 | 1011.8 |
| 20260506232003 | 9 | 321 | 3.2 | 9.7 | 0.00 | 1.32 | 1.32 | 71 | 1011.6 |
| 20260506231503 | 9 | 292 | 3.2 | 9.7 | 0.00 | 1.32 | 1.32 | 71 | 1011.6 |
| 20260506231004 | 9 | 319 | 3.2 | 11.3 | 0.00 | 1.32 | 1.32 | 71 | 1011.5 |
| 20260506230504 | 9 | 303 | 3.2 | 11.3 | 0.00 | 1.32 | 1.32 | 71 | 1011.5 |
| 20260506230007 | 9 | 322 | 4.8 | 11.3 | 0.00 | 1.32 | 1.32 | 71 | 1011.5 |
| 20260506225504 | 9 | 321 | 4.8 | 11.3 | 0.00 | 1.32 | 1.32 | 71 | 1011.6 |
| 20260506225003 | 9 | 290 | 4.8 | 11.3 | 0.00 | 1.32 | 1.32 | 71 | 1011.6 |
| 20260506224512 | 9 | 309 | 4.8 | 12.9 | 0.00 | 1.32 | 1.32 | 72 | 1011.5 |
| 20260506224004 | 9 | 294 | 4.8 | 12.9 | 0.00 | 1.32 | 1.32 | 73 | 1011.5 |
| 20260506223507 | 9 | 292 | 4.8 | 12.9 | 0.00 | 1.32 | 1.32 | 73 | 1011.5 |
| 20260506223028 | 9 | 293 | 3.2 | 14.5 | 0.00 | 1.32 | 1.32 | 73 | 1011.3 |
| 20260506222506 | 10 | 278 | 4.8 | 14.5 | 0.00 | 1.32 | 1.32 | 72 | 1011.3 |
| 20260506222009 | 10 | 310 | 6.4 | 14.5 | 0.00 | 1.32 | 1.32 | 72 | 1011.2 |
| 20260506221520 | 10 | 278 | 6.4 | 11.3 | 0.00 | 1.32 | 1.32 | 72 | 1011.1 |
| 20260506221002 | 10 | 287 | 4.8 | 11.3 | 0.00 | 1.32 | 1.32 | 72 | 1011.1 |
| 20260506220504 | 10 | 302 | 3.2 | 9.7 | 0.00 | 1.32 | 1.32 | 73 | 1011.0 |
| 20260506220004 | 10 | 317 | 4.8 | 9.7 | 0.00 | 1.32 | 1.32 | 74 | 1011.1 |
| 20260506215503 | 10 | 283 | 3.2 | 11.3 | 0.00 | 1.32 | 1.32 | 74 | 1011.2 |
| 20260506215002 | 10 | 283 | 4.8 | 11.3 | 0.00 | 1.32 | 1.32 | 75 | 1011.2 |
| 20260506214510 | 9 | 291 | 4.8 | 11.3 | 0.00 | 1.32 | 1.32 | 75 | 1011.1 |
| 20260506214004 | 10 | 294 | 6.4 | 11.3 | 0.00 | 1.32 | 1.32 | 74 | 1011.0 |
| 20260506213503 | 10 | 309 | 4.8 | 9.7 | 0.00 | 1.32 | 1.32 | 75 | 1010.8 |
| 20260506213013 | 9 | 288 | 4.8 | 9.7 | 0.00 | 1.32 | 1.32 | 75 | 1010.8 |
| 20260506212507 | 9 | 348 | 3.2 | 11.3 | 0.00 | 1.32 | 1.32 | 77 | 1010.6 |
| 20260506212007 | 9 | 330 | 4.8 | 11.3 | 0.00 | 1.32 | 1.32 | 76 | 1010.6 |
| 20260506211532 | 9 | 297 | 1.6 | 11.3 | 0.00 | 1.32 | 1.32 | 77 | 1010.5 |
| 20260506211006 | 9 | 342 | 3.2 | 11.3 | 0.00 | 1.32 | 1.32 | 76 | 1010.6 |
| 20260506210507 | 9 | 291 | 0.0 | 11.3 | 0.00 | 1.32 | 1.32 | 76 | 1010.7 |
| 20260506210031 | 9 | 264 | 4.8 | 11.3 | 0.00 | 1.32 | 1.32 | 76 | 1010.6 |
| 20260506205507 | 9 | 304 | 1.6 | 14.5 | 0.00 | 1.32 | 1.32 | 77 | 1010.5 |
| 20260506205004 | 9 | 298 | 6.4 | 14.5 | 0.00 | 1.32 | 1.32 | 76 | 1010.3 |
| 20260506204507 | 9 | 327 | 4.8 | 14.5 | 0.00 | 1.32 | 1.32 | 77 | 1010.1 |
| 20260506204004 | 9 | 267 | 6.4 | 14.5 | 0.00 | 1.32 | 1.32 | 78 | 1010.1 |
| 20260506203503 | 9 | 289 | 4.8 | 16.1 | 0.00 | 1.32 | 1.32 | 79 | 1010.1 |
| 20260506203007 | 9 | 302 | 4.8 | 16.1 | 0.00 | 1.32 | 1.32 | 78 | 1010.0 |
| 20260506202503 | 9 | 304 | 6.4 | 14.5 | 0.00 | 1.32 | 1.32 | 78 | 1010.1 |
| 20260506202007 | 9 | 307 | 8.0 | 17.7 | 0.00 | 1.32 | 1.32 | 78 | 1010.1 |
| 20260506201515 | 9 | 266 | 4.8 | 19.3 | 0.00 | 1.32 | 1.32 | 78 | 1010.2 |
| 20260506201008 | 9 | 308 | 8.0 | 19.3 | 0.00 | 1.32 | 1.32 | 78 | 1010.3 |
| 20260506200507 | 9 | 310 | 9.7 | 20.9 | 0.00 | 1.32 | 1.32 | 78 | 1010.2 |
| 20260506200018 | 10 | 321 | 8.0 | 20.9 | 0.00 | 1.32 | 1.32 | 78 | 1010.2 |
| 20260506195511 | 10 | 285 | 11.3 | 20.9 | 0.00 | 1.32 | 1.32 | 78 | 1010.2 |
| 20260506195013 | 10 | 278 | 8.0 | 17.7 | 0.00 | 1.32 | 1.32 | 79 | 1010.1 |
| 20260506194522 | 10 | 302 | 3.2 | 17.7 | 0.00 | 1.32 | 1.32 | 79 | 1010.1 |
| 20260506194011 | 10 | 291 | 6.4 | 17.7 | 0.00 | 1.32 | 1.32 | 79 | 1009.9 |
| 20260506193504 | 10 | 299 | 4.8 | 24.1 | 0.00 | 1.32 | 1.32 | 79 | 1010.0 |
| 20260506193009 | 10 | 300 | 4.8 | 24.1 | 0.00 | 1.32 | 1.32 | 79 | 1009.9 |
| 20260506192507 | 10 | 288 | 9.7 | 17.7 | 0.00 | 1.32 | 1.32 | 79 | 1009.7 |
| 20260506192005 | 10 | 289 | 4.8 | 17.7 | 0.00 | 1.32 | 1.32 | 80 | 1009.7 |
| 20260506191511 | 10 | 263 | 6.4 | 14.5 | 0.00 | 1.32 | 1.32 | 81 | 1009.7 |
| 20260506191006 | 10 | 294 | 1.6 | 16.1 | 0.00 | 1.32 | 1.32 | 82 | 1009.8 |
| 20260506190506 | 10 | 236 | 4.8 | 20.9 | 0.00 | 1.32 | 1.32 | 82 | 1009.7 |
| 20260506190016 | 10 | 294 | 6.4 | 20.9 | 0.00 | 1.32 | 1.32 | 82 | 1009.6 |